Weather History for Pontiac, IL

Change the Weather History Date:

Monday, November 12, 2012

  Actual Average Record
Temperature  
Mean Temperature 32 °F -  
Max Temperature 37 °F 48 °F 73 °F (1964)
Min Temperature 28 °F 32 °F 12 °F (1911)
Degree Days  
Heating Degree Days 32    
Moisture  
Dew Point 27 °F    
Average Humidity 75    
Maximum Humidity 100    
Minimum Humidity 60    
Precipitation  
Precipitation 0.01 in - - ()
Sea Level Pressure  
Sea Level Pressure 30.19 in    
Wind  
Wind Speed 18 mph (West)    
Max Wind Speed 26 mph    
Max Gust Speed 30 mph    
Visibility 10 miles    
Events Rain    
Averages and records for this station are not official NWS values.
T = Trace of Precipitation, MM = Missing Value Source: NWS Daily Summary

Daily Weather History Graph

Daily Weather History Graph

Search for Another Location

Airport:

Trip Planner

Search our weather history database for the weather conditions in past years. The results will help you decide how hot, cold, wet, or windy it might be!

Date:

Astronomy

Nov. 12, 2012 Rise Set
Actual Time 6:38 AM CST 4:38 PM CST
Civil Twilight 6:09 AM CST 5:07 PM CST
Nautical Twilight 5:36 AM CST 5:40 PM CST
Astronomical Twilight 5:04 AM CST 6:12 PM CST
Moon 5:03 AM CST (11/12) 3:43 PM CST (11/12)
Length of Visible Light 10h 57m
Length of Day
9h 59m
Waning Crescent, 2% of the Moon is Illuminated
Nov 12
Waning Crescent
Nov 13
New
Nov 20
First Quarter
Nov 28
Full
Dec 6
Last Quarter

Hourly Weather History & Observations

Time (CST) Temp. Windchill Dew Point Humidity Pressure Visibility Wind Dir Wind Speed Gust Speed Precip Events Conditions
12:15 AM 37.4 °F 28.2 °F 35.6 °F 93% 29.99 in 7.0 mi West 16.1 mph - N/A Rain Rain
12:35 AM 37.4 °F 27.5 °F 37.4 °F 100% 30.00 in 10.0 mi West 18.4 mph 21.9 mph N/A Rain Light Rain
12:55 AM 37.4 °F 27.2 °F 35.6 °F 93% 30.00 in 10.0 mi WNW 19.6 mph 25.3 mph 0.01 in   Overcast
1:15 AM 37.4 °F 28.2 °F 35.6 °F 93% 30.02 in 7.0 mi West 16.1 mph 21.9 mph N/A   Overcast
1:35 AM 37.4 °F 27.5 °F 35.6 °F 93% 30.03 in 5.0 mi West 18.4 mph - N/A   Overcast
1:55 AM 37.4 °F 27.5 °F 35.6 °F 93% 30.02 in 7.0 mi West 18.4 mph - N/A   Overcast
2:15 AM 35.6 °F 24.5 °F 33.8 °F 93% 30.05 in 10.0 mi West 20.7 mph 25.3 mph N/A   Overcast
2:35 AM 35.6 °F 24.5 °F 32.0 °F 87% 30.05 in 10.0 mi West 20.7 mph - N/A   Overcast
2:55 AM 35.6 °F 25.2 °F 30.2 °F 81% 30.04 in 10.0 mi West 18.4 mph - N/A   Overcast
3:15 AM 35.6 °F 24.5 °F 30.2 °F 81% 30.03 in 10.0 mi West 20.7 mph - N/A   Overcast
3:35 AM 33.8 °F 21.6 °F 28.4 °F 81% 30.08 in 10.0 mi West 23.0 mph 29.9 mph N/A   Scattered Clouds
3:55 AM 33.8 °F 21.3 °F 26.6 °F 75% 30.07 in 10.0 mi West 24.2 mph 28.8 mph N/A   Scattered Clouds
4:15 AM 32.0 °F 19.5 °F 26.6 °F 80% 30.07 in 10.0 mi WNW 21.9 mph 27.6 mph N/A   Mostly Cloudy
4:35 AM 32.0 °F 20.1 °F 26.6 °F 80% 30.08 in 10.0 mi West 19.6 mph 27.6 mph N/A   Overcast
4:55 AM 32.0 °F 20.8 °F 26.6 °F 80% 30.09 in 10.0 mi WNW 17.3 mph 24.2 mph N/A   Overcast
5:15 AM 32.0 °F 19.5 °F 24.8 °F 75% 30.11 in 10.0 mi West 21.9 mph 28.8 mph N/A   Overcast
5:35 AM 32.0 °F 20.8 °F 26.6 °F 80% 30.11 in 10.0 mi West 17.3 mph 24.2 mph N/A   Overcast
5:55 AM 30.2 °F 18.5 °F 26.6 °F 86% 30.11 in 10.0 mi West 17.3 mph - N/A   Overcast
6:15 AM 30.2 °F 17.1 °F 24.8 °F 80% 30.13 in 10.0 mi West 21.9 mph - N/A   Mostly Cloudy
6:35 AM 30.2 °F 17.1 °F 23.0 °F 75% 30.14 in 10.0 mi West 21.9 mph 29.9 mph N/A   Scattered Clouds
6:55 AM 28.4 °F 15.1 °F 23.0 °F 80% 30.15 in 10.0 mi West 20.7 mph 24.2 mph N/A   Clear
7:15 AM 28.4 °F 14.7 °F 21.2 °F 74% 30.16 in 10.0 mi West 21.9 mph 26.5 mph N/A   Clear
7:35 AM 28.4 °F 16.6 °F 23.0 °F 80% 30.17 in 10.0 mi West 16.1 mph 26.5 mph N/A   Clear
7:55 AM 28.4 °F 15.4 °F 24.8 °F 86% 30.17 in 10.0 mi WSW 19.6 mph - N/A   Clear
8:15 AM 28.4 °F 14.7 °F 21.2 °F 74% 30.18 in 10.0 mi West 21.9 mph 29.9 mph N/A   Clear
8:35 AM 30.2 °F 17.1 °F 21.2 °F 69% 30.18 in 10.0 mi West 21.9 mph - N/A   Clear
8:55 AM 30.2 °F 17.4 °F 23.0 °F 75% 30.19 in 10.0 mi West 20.7 mph 25.3 mph N/A   Clear
9:15 AM 30.2 °F 17.4 °F 23.0 °F 75% 30.19 in 10.0 mi West 20.7 mph - N/A   Clear
9:35 AM 30.2 °F 18.1 °F 23.0 °F 75% 30.20 in 10.0 mi West 18.4 mph 25.3 mph N/A   Scattered Clouds
9:55 AM 30.2 °F 17.4 °F 23.0 °F 75% 30.20 in 10.0 mi West 20.7 mph - N/A   Clear
10:15 AM 32.0 °F 21.2 °F 24.8 °F 75% 30.20 in 10.0 mi West 16.1 mph - N/A   Clear
10:35 AM 32.0 °F 19.5 °F 24.8 °F 75% 30.20 in 10.0 mi West 21.9 mph 25.3 mph N/A   Clear
10:55 AM 33.8 °F 22.8 °F 24.8 °F 70% 30.20 in 10.0 mi West 18.4 mph 25.3 mph N/A   Clear
11:15 AM 33.8 °F 22.5 °F 24.8 °F 70% 30.20 in 10.0 mi West 19.6 mph - N/A   Clear
11:35 AM 33.8 °F 21.9 °F 24.8 °F 70% 30.19 in 10.0 mi West 21.9 mph 26.5 mph N/A   Clear
11:55 AM 35.6 °F 24.5 °F 24.8 °F 65% 30.18 in 10.0 mi West 20.7 mph 27.6 mph N/A   Clear
12:15 PM 35.6 °F 24.5 °F 24.8 °F 65% 30.18 in 10.0 mi West 20.7 mph 26.5 mph N/A   Scattered Clouds
12:35 PM 35.6 °F 24.0 °F 24.8 °F 65% 30.18 in 10.0 mi WSW 23.0 mph 28.8 mph N/A   Clear
12:55 PM 37.4 °F 25.6 °F 24.8 °F 60% 30.19 in 10.0 mi West 26.5 mph - N/A   Clear
1:15 PM 37.4 °F 27.2 °F 24.8 °F 60% 30.19 in 10.0 mi WSW 19.6 mph - N/A   Scattered Clouds
1:35 PM 37.4 °F 26.9 °F 24.8 °F 60% 30.19 in 10.0 mi WSW 20.7 mph 26.5 mph N/A   Scattered Clouds
1:55 PM 37.4 °F 26.6 °F 24.8 °F 60% 30.18 in 10.0 mi West 21.9 mph 28.8 mph N/A   Clear
2:15 PM 37.4 °F 26.6 °F 24.8 °F 60% 30.19 in 10.0 mi WSW 21.9 mph 27.6 mph N/A   Scattered Clouds
2:35 PM 37.4 °F 26.6 °F 24.8 °F 60% 30.19 in 10.0 mi West 21.9 mph 29.9 mph N/A   Scattered Clouds
2:55 PM 37.4 °F 26.9 °F 24.8 °F 60% 30.20 in 10.0 mi West 20.7 mph 27.6 mph N/A   Scattered Clouds
3:15 PM 37.4 °F 25.9 °F 24.8 °F 60% 30.21 in 10.0 mi West 25.3 mph 28.8 mph N/A   Clear
3:35 PM 37.4 °F 26.6 °F 24.8 °F 60% 30.22 in 10.0 mi West 21.9 mph 28.8 mph N/A   Scattered Clouds
3:55 PM 37.4 °F 28.2 °F 24.8 °F 60% 30.23 in 10.0 mi West 16.1 mph - N/A   Mostly Cloudy
4:15 PM 37.4 °F 26.9 °F 24.8 °F 60% 30.24 in 10.0 mi West 20.7 mph 25.3 mph N/A   Scattered Clouds
4:35 PM 35.6 °F 26.6 °F 24.8 °F 65% 30.24 in 10.0 mi West 13.8 mph - N/A   Scattered Clouds
4:55 PM 35.6 °F 27.5 °F 26.6 °F 70% 30.25 in 10.0 mi West 11.5 mph - N/A   Clear
5:15 PM 35.6 °F 28.0 °F 26.6 °F 70% 30.26 in 10.0 mi West 10.4 mph - N/A   Scattered Clouds
5:35 PM 35.6 °F 28.0 °F 26.6 °F 70% 30.27 in 10.0 mi West 10.4 mph - N/A   Mostly Cloudy
5:55 PM 35.6 °F 28.0 °F 26.6 °F 70% 30.28 in 10.0 mi West 10.4 mph - N/A   Scattered Clouds
6:15 PM 35.6 °F 28.6 °F 26.6 °F 70% 30.28 in 10.0 mi West 9.2 mph - N/A   Scattered Clouds
6:35 PM 35.6 °F 27.5 °F 26.6 °F 70% 30.29 in 10.0 mi West 11.5 mph - N/A   Mostly Cloudy
6:55 PM 35.6 °F 26.6 °F 26.6 °F 70% 30.29 in 10.0 mi West 13.8 mph - N/A   Overcast
7:15 PM 35.6 °F 27.5 °F 26.6 °F 70% 30.30 in 10.0 mi West 11.5 mph - N/A   Overcast
7:35 PM 35.6 °F 27.5 °F 26.6 °F 70% 30.30 in 10.0 mi West 11.5 mph - N/A   Overcast
7:55 PM 35.6 °F 27.1 °F 26.6 °F 70% 30.31 in 10.0 mi West 12.7 mph - N/A   Overcast
8:15 PM 35.6 °F 28.0 °F 26.6 °F 70% 30.31 in 10.0 mi West 10.4 mph - N/A   Scattered Clouds
8:35 PM 33.8 °F 27.0 °F 26.6 °F 75% 30.32 in 10.0 mi WSW 8.1 mph - N/A   Scattered Clouds
8:55 PM 33.8 °F 26.4 °F 26.6 °F 75% 30.33 in 10.0 mi WSW 9.2 mph - N/A   Scattered Clouds
9:15 PM 33.8 °F 26.4 °F 26.6 °F 75% 30.33 in 10.0 mi WSW 9.2 mph - N/A   Scattered Clouds
9:35 PM 32.0 °F 24.8 °F 26.6 °F 80% 30.34 in 10.0 mi WSW 8.1 mph - N/A   Clear
9:55 PM 33.8 °F 27.7 °F 26.6 °F 75% 30.34 in 10.0 mi WSW 6.9 mph - N/A   Scattered Clouds
10:15 PM 32.0 °F 24.8 °F 26.6 °F 80% 30.35 in 10.0 mi WSW 8.1 mph - N/A   Clear
10:35 PM 32.0 °F 25.6 °F 26.6 °F 80% 30.35 in 10.0 mi WSW 6.9 mph - N/A   Clear
10:55 PM 30.2 °F 22.6 °F 26.6 °F 86% 30.36 in 10.0 mi WSW 8.1 mph - N/A   Clear
11:15 PM 30.2 °F 21.9 °F 26.6 °F 86% 30.36 in 10.0 mi West 9.2 mph - N/A   Clear
11:35 PM 30.2 °F 21.3 °F 26.6 °F 86% 30.37 in 10.0 mi West 10.4 mph - N/A   Clear
11:55 PM 32.0 °F 23.0 °F 26.6 °F 80% 30.37 in 10.0 mi West 11.5 mph - N/A   Clear